Home   Weather   A Coruña   Past weeks

Flag for Spain Past Weather in A Coruña, Spain — Yesterday and Last 2 Weeks

Now
60 °F

Cool.


Feels Like: 60 °F
Forecast: 62 / 69 °F
Wind: 5 mph from Northeast

Location: La Coruna

Current Time: May 27, 2017 at 2:43:22 am

Latest Report: May 27, 2017 at 1:00 am


Visibility: 13 mi

Pressure: 29.99 "Hg

Humidity: 89%

Dew Point: 57 °F

Location of A CoruñaLocation

Past Weather in A Coruña — Graph

°F

A Coruña Temperature Yesterday

Maximum temperature yesterday: 66 °F (at 5:00 pm)
Minimum temperature yesterday: 59 °F (at 10:00 am)
Average temperature yesterday: 61 °F

High & Low Weather Summary for the Past Weeks

 TemperatureHumidityPressure
High82 °F (May 24, 5:00 pm)100% (May 26, 4:00 am)30.31 "Hg (May 26, 4:00 am)
Low53 °F (May 19, 3:00 am)48% (May 21, 1:00 pm)29.44 "Hg (May 12, 1:00 am)
Average63 °F78%30.07 "Hg
* Reported May 12 1:00 am — May 27 1:00 am, A Coruña. Weather by CustomWeather, © 2017

Note: Actual official high and low records may vary slightly from our data, if they occured in-between our weather recording intervals... More about our weather records

Advertising

A Coruña Weather History for the Previous 24 Hours

Scroll right to see more
 ConditionsComfort  
Time TempWeatherWind HumidityBarometerVisibility
1:00 am
Sat, May 27
60 °FCool.5 mph89%29.99 "Hg12 mi
12:00 am60 °FCool.5 mph89%29.99 "Hg12 mi
11:00 pm
Fri, May 26
60 °FOvercast.3 mph92%29.98 "Hg9 mi
10:00 pm60 °FCool.5 mph92%29.98 "Hg12 mi
9:00 pm61 °FCool.3 mph92%29.96 "Hg12 mi
8:00 pm61 °FFog.8 mph92%29.95 "Hg11 mi
7:00 pm63 °FMild.8 mph89%29.95 "Hg12 mi
6:00 pm66 °FMild.6 mph85%29.93 "Hg12 mi
5:00 pm66 °FFog.5 mph87%29.93 "Hg12 mi
4:00 pm62 °FCool.3 mph94%29.94 "Hg10 mi
3:00 pm60 °FCool.2 mph97%29.90 "Hg12 mi
2:00 pm59 °FLow clouds.16 mph98%29.87 "Hg4 mi
1:00 pm59 °FRain. Cloudy.8 mph98%30.01 "Hg1 mi
12:00 pm60 °FLight rain. Cloudy.12 mph99%29.97 "HgN/A
11:00 am60 °FLight rain. Low clouds.9 mph100%29.88 "Hg5 mi
10:00 am59 °FRain. Cloudy.2 mph100%29.94 "HgN/A
9:00 am59 °FRain. Cloudy.6 mph100%29.91 "Hg2 mi
8:00 am59 °FRain. Cloudy.7 mph100%29.91 "Hg2 mi
7:00 am59 °FLight rain. Cloudy.5 mph100%29.88 "Hg1 mi
6:00 am60 °FDrizzle. Overcast.6 mph100%29.91 "Hg1 mi
5:00 am60 °FFog.3 mph100%29.88 "Hg1 mi
4:00 am60 °FDrizzle. Overcast.5 mph100%29.89 "Hg1 mi
3:00 am60 °FCool.3 mph99%29.92 "Hg1 mi
2:00 am60 °FFog.5 mph99%29.93 "Hg1 mi
Weather by CustomWeather, © 2017

See weather overviewHow to use our weather pages